Location: Newark
(21.1200°N, 73.4000°E)
Time: 03:43:21
(UTC+00:00)

Courier 1B Rocket - Pass Details

Date: 26 January 2020
Orbit: 920 x 1202 km, 28.2° (Epoch: 16 February)

Event Time Altitude Azimuth Distance (km) Brightness Sun altitude
Rises 10:05:21 0° 290° (WNW) 3,779 8.4 33.0°
Reaches altitude 10° 10:08:10 10° 294° (WNW) 2,783 7.8 32.5°
Maximum altitude 10:14:48 62° 14° (NNE) 1,074 5.5 31.3°
Drops below altitude 10° 10:21:03 10° 95° (E) 2,629 7.0 30.2°
Sets 10:23:39 0° 98° (E) 3,556 7.6 29.7°
